STARLINK-31942 (59899 NORAD) Tracking and Keplerian Element Data

This shows tracking and keplerian element data for the satellite.

Feedback or suggestion? Click here.




ElementValue
Catalog59899
NameSTARLINK-31942
Epoch Orbit291
Epoch Day160.16667824
Epoch Year2024
RAAN174.3292
Inclination43.0031
Eccentricity0.0001155
Argument of Perigee266.2509
Mean Anonmoly339.4058
Mean Motion15.79944679
Decay Rate-0.0107633
L11 59899U 24100Q 24160.16667824 -.01076330 00000+0 -62526-2 0 9994
L22 59899 43.0031 174.3292 0001155 266.2509 339.4058 15.79944679 2918



Live tracking and technical data element details for STARLINK-31942 (NORAD 59899). STARLINK-31942 can be tracked NOW for your location showing map with azimuth and elevation plus other details from your city location.







IsCatalogInMostPopularTable: catalog: 59899, numindb: 9
Update: records affected: 1



GetName: 59899 STARLINK-31942

Hit Count: updated at: Thu, 25 Jul 2024 01:08:08 GMT